Regional Weather Roundup
Issued by NWS

Home | Current Version | Previous Version | Text Only | Print | Product List | Glossary Off
Versions: 1 2 3 4 5 6 7 8 9 10 11 12 13 14 15 16 17 18 19 20 21 22 23 24 25 26 27 28

000
ASUS45 KBOI 210110
RWRID

IDAHO REGIONAL WEATHER ROUNDUP
NATIONAL WEATHER SERVICE BOISE ID
700 PM MDT WED SEP 20 2017

NOTE: "FAIR" INDICATES FEW OR NO CLOUDS BELOW 12000 FEET
WITH NO SIGNIFICANT WEATHER AND/OR OBSTRUCTIONS TO VISIBILITY

IDZ012-014-210200-
SOUTHWEST IDAHO


CITY           SKY/WX    TMP DP  RH WIND       PRES   REMARKS
BOISE          LGT RAIN  53  43  68 S9        29.73R
CALDWELL       CLOUDY    54  48  80 E7        29.72R
MOUNTAIN HOME  MOCLDY    54  45  71 N5        29.73S
$$

IDZ016-017-210200-
SOUTHCENTRAL IDAHO


CITY           SKY/WX    TMP DP  RH WIND       PRES   REMARKS
BURLEY         LGT RAIN  53  44  71 NW7G21    29.72R
JEROME         LGT RAIN  53  42  66 W12G23    29.75R
TWIN FALLS     CLOUDY    51  42  71 W20G28    29.77R
$$

IDZ019>023-210200-
SOUTHEAST IDAHO


CITY           SKY/WX    TMP DP  RH WIND       PRES   REMARKS
IDAHO FALLS    CLOUDY    59  35  40 SW17G23   29.72R
POCATELLO      CLOUDY    56  41  57 S8        29.75R
REXBURG        CLOUDY    57  34  41 SW9       29.70F
$$

IDZ006-010-011-018-031-032-210200-
CENTRAL IDAHO MOUNTAINS


CITY           SKY/WX    TMP DP  RH WIND       PRES   REMARKS
MCCALL         MOCLDY    46  36  68 SE5       29.72S
HAILEY         LGT RAIN  48  39  71 NW10      29.79R
STANLEY          N/A     36  35  96 CALM      29.78S
SALMON         CLOUDY    45  37  73 N12G25    29.72R
CHALLIS        CLOUDY    48  38  68 SE9       29.71F
$$

IDZ002-004-006-007-026-210200-
NORTHERN IDAHO


CITY           SKY/WX    TMP DP  RH WIND       PRES   REMARKS
LEWISTON       LGT RAIN  52  45  77 SW8       29.71R
LOWELL           N/A     49  46  90 CALM      29.76R
COEUR D`ALENE  LGT RAIN  45  41  86 S6        29.69R
MULLAN PASS    SNOW      32  30  92 VRB3      29.66R VSB 1/4
$$




USA.gov is the U.S. government's official web portal to all federal, state and local government web resources and services.